Location: Clarion
(42.7316°N, 93.7330°W)
Time: 09:55:25
(UTC+00:00)

USA 229 - Pass Details

Date: 22 April 2026
Orbit: 843 x 1365 km, 63.4° (Epoch: 10 January)

Event Time Altitude Azimuth Distance (km) Brightness Sun altitude
Rises 07:05:51 0° 321° (NW) 4,048 7.2 -33.7°
Reaches altitude 10° 07:08:30 10° 318° (NW) 3,151 6.5 -33.6°
Enters shadow 07:14:27 52° 285° (WNW) 1,555 4.4 -33.3°
